TimeAKDT,TemperatureF,Dew PointF,Humidity,Sea Level PressureIn,VisibilityMPH,Wind Direction,Wind SpeedMPH,Gust SpeedMPH,PrecipitationIn,Events,Conditions,WindDirDegrees,DateUTC
12:16 AM,57.2,50.0,77,30.01,10.0,South,3.5,-,N/A,,Overcast,170,2013-07-21 08:16:00
12:36 AM,57.2,50.0,77,30.01,10.0,SSE,4.6,-,N/A,,Overcast,160,2013-07-21 08:36:00
12:56 AM,57.2,51.8,82,30.01,10.0,SSE,8.1,-,N/A,,Overcast,150,2013-07-21 08:56:00
1:16 AM,57.2,51.8,82,30.00,10.0,SSE,6.9,-,N/A,,Overcast,160,2013-07-21 09:16:00
2:16 AM,55.4,51.8,88,30.00,5.0,SW,5.8,-,N/A,,Overcast,230,2013-07-21 10:16:00
2:56 AM,55.4,51.8,88,29.99,10.0,Calm,Calm,-,N/A,,Overcast,0,2013-07-21 10:56:00
3:16 AM,55.4,51.8,88,29.99,10.0,Calm,Calm,-,N/A,,Overcast,0,2013-07-21 11:16:00
3:36 AM,55.4,51.8,88,29.99,10.0,Calm,Calm,-,N/A,,Overcast,0,2013-07-21 11:36:00
4:16 AM,53.6,51.8,94,29.99,8.0,ENE,4.6,-,N/A,,Overcast,70,2013-07-21 12:16:00
4:36 AM,53.6,51.8,94,29.98,10.0,ENE,3.5,-,N/A,,Overcast,70,2013-07-21 12:36:00
5:16 AM,53.6,51.8,94,29.98,9.0,WNW,3.5,-,N/A,,Overcast,300,2013-07-21 13:16:00
5:36 AM,53.6,51.8,94,29.98,10.0,Calm,Calm,-,N/A,,Overcast,0,2013-07-21 13:36:00
5:56 AM,53.6,51.8,94,29.97,10.0,ENE,5.8,-,N/A,,Mostly Cloudy,70,2013-07-21 13:56:00
6:16 AM,53.6,51.8,94,29.97,10.0,NE,3.5,-,N/A,,Mostly Cloudy,50,2013-07-21 14:16:00
6:36 AM,53.6,51.8,94,29.97,10.0,North,3.5,-,N/A,,Mostly Cloudy,10,2013-07-21 14:36:00
6:56 AM,55.4,51.8,88,29.97,10.0,Calm,Calm,-,N/A,,Overcast,0,2013-07-21 14:56:00
7:16 AM,55.4,51.8,88,29.97,10.0,NE,3.5,-,N/A,,Overcast,40,2013-07-21 15:16:00
7:36 AM,55.4,51.8,88,29.97,10.0,NE,4.6,-,N/A,,Overcast,40,2013-07-21 15:36:00
7:56 AM,55.4,51.8,88,29.97,10.0,Calm,Calm,-,N/A,,Overcast,0,2013-07-21 15:56:00
8:36 AM,57.2,51.8,82,29.97,10.0,ENE,4.6,-,N/A,,Overcast,60,2013-07-21 16:36:00
8:56 AM,57.2,50.0,77,29.97,10.0,Calm,Calm,-,N/A,,Mostly Cloudy,0,2013-07-21 16:56:00
9:16 AM,57.2,51.8,82,29.97,10.0,NE,3.5,-,N/A,,Mostly Cloudy,50,2013-07-21 17:16:00
9:56 AM,57.2,51.8,82,29.97,10.0,ENE,4.6,-,N/A,,Mostly Cloudy,60,2013-07-21 17:56:00
10:16 AM,57.2,51.8,82,29.97,10.0,Calm,Calm,-,N/A,,Mostly Cloudy,0,2013-07-21 18:16:00
10:56 AM,57.2,51.8,82,29.98,10.0,Calm,Calm,-,N/A,,Overcast,0,2013-07-21 18:56:00
11:16 AM,57.2,51.8,82,29.97,10.0,ENE,5.8,-,N/A,,Overcast,60,2013-07-21 19:16:00
11:36 AM,57.2,51.8,82,29.97,10.0,ENE,5.8,-,N/A,,Overcast,60,2013-07-21 19:36:00
11:56 AM,57.2,51.8,82,29.97,10.0,ENE,5.8,-,N/A,,Mostly Cloudy,70,2013-07-21 19:56:00
12:16 PM,57.2,51.8,82,29.97,10.0,ENE,4.6,-,N/A,,Mostly Cloudy,70,2013-07-21 20:16:00
12:36 PM,57.2,51.8,82,29.98,10.0,ENE,4.6,-,N/A,,Mostly Cloudy,60,2013-07-21 20:36:00
12:56 PM,57.2,51.8,82,29.98,10.0,East,3.5,-,N/A,,Overcast,80,2013-07-21 20:56:00
1:16 PM,55.4,51.8,88,29.98,10.0,ENE,3.5,-,N/A,,Overcast,60,2013-07-21 21:16:00
1:36 PM,55.4,51.8,88,29.98,10.0,Calm,Calm,-,N/A,,Overcast,0,2013-07-21 21:36:00
2:56 PM,57.2,51.8,82,29.99,7.0,ENE,3.5,-,N/A,,Overcast,70,2013-07-21 22:56:00
3:16 PM,55.4,53.6,94,29.99,7.0,Calm,Calm,-,N/A,,Overcast,0,2013-07-21 23:16:00
3:36 PM,55.4,53.6,94,29.99,7.0,Calm,Calm,-,N/A,,Overcast,0,2013-07-21 23:36:00
3:56 PM,55.4,53.6,94,29.99,6.0,NNE,3.5,-,0.01,,Overcast,30,2013-07-21 23:56:00
4:16 PM,57.2,53.6,88,29.98,6.0,ENE,5.8,-,N/A,,Overcast,70,2013-07-22 00:16:00
4:36 PM,55.4,53.6,94,29.98,6.0,East,5.8,-,N/A,,Overcast,80,2013-07-22 00:36:00
4:56 PM,55.4,53.6,94,29.98,10.0,ENE,4.6,-,N/A,,Overcast,60,2013-07-22 00:56:00
5:16 PM,55.4,51.8,88,29.98,10.0,ENE,3.5,-,N/A,,Overcast,70,2013-07-22 01:16:00
5:36 PM,55.4,53.6,94,29.98,10.0,Calm,Calm,-,N/A,,Overcast,0,2013-07-22 01:36:00
5:56 PM,57.2,53.6,88,29.98,7.0,NW,3.5,-,N/A,,Overcast,310,2013-07-22 01:56:00
6:36 PM,55.4,51.8,88,29.98,7.0,Calm,Calm,-,N/A,,Overcast,0,2013-07-22 02:36:00
7:16 PM,55.4,51.8,88,29.99,7.0,North,5.8,-,N/A,,Overcast,350,2013-07-22 03:16:00
7:56 PM,55.4,51.8,88,29.99,7.0,North,4.6,-,N/A,,Overcast,360,2013-07-22 03:56:00
8:16 PM,53.6,51.8,94,29.98,7.0,North,3.5,-,N/A,,Overcast,10,2013-07-22 04:16:00
9:16 PM,53.6,51.8,94,29.99,7.0,Calm,Calm,-,N/A,,Overcast,0,2013-07-22 05:16:00
9:36 PM,53.6,51.8,94,29.99,7.0,Calm,Calm,-,N/A,,Overcast,0,2013-07-22 05:36:00
10:16 PM,53.6,51.8,94,30.00,10.0,Calm,Calm,-,N/A,,Overcast,0,2013-07-22 06:16:00
10:36 PM,53.6,51.8,94,30.00,10.0,Calm,Calm,-,N/A,,Overcast,0,2013-07-22 06:36:00
10:56 PM,53.6,51.8,94,30.00,10.0,Calm,Calm,-,N/A,,Overcast,0,2013-07-22 06:56:00
11:56 PM,53.6,51.8,94,30.00,10.0,Calm,Calm,-,0.01,,Overcast,0,2013-07-22 07:56:00